TimeCDT,TemperatureF,Dew PointF,Humidity,Sea Level PressureIn,VisibilityMPH,Wind Direction,Wind SpeedMPH,Gust SpeedMPH,PrecipitationIn,Events,Conditions,WindDirDegrees,DateUTC
12:58 AM,67.3,49.5,53,30.18,10.0,SSW,9.2,-,N/A,,Clear,210,2013-05-14 05:58:00
1:58 AM,66.4,48.9,53,30.17,10.0,SSW,10.4,-,N/A,,Clear,210,2013-05-14 06:58:00
2:58 AM,65.3,50.2,58,30.15,10.0,SSW,12.7,-,N/A,,Clear,210,2013-05-14 07:58:00
3:58 AM,63.9,51.1,63,30.16,10.0,SSW,9.2,-,N/A,,Clear,210,2013-05-14 08:58:00
4:58 AM,62.1,51.3,68,30.16,10.0,SSW,6.9,-,N/A,,Clear,210,2013-05-14 09:58:00
5:58 AM,60.8,50.4,68,30.18,10.0,SSW,4.6,-,N/A,,Clear,210,2013-05-14 10:58:00
6:58 AM,61.2,50.4,68,30.19,10.0,SSW,4.6,-,N/A,,Clear,200,2013-05-14 11:58:00
7:58 AM,64.0,52.7,67,30.20,10.0,SSW,8.1,-,N/A,,Clear,210,2013-05-14 12:58:00
8:58 AM,68.5,54.0,60,30.22,10.0,SSW,8.1,-,N/A,,Clear,210,2013-05-14 13:58:00
9:58 AM,73.0,50.4,45,30.23,10.0,SSW,12.7,-,N/A,,Clear,210,2013-05-14 14:58:00
10:58 AM,76.3,55.0,48,30.23,10.0,South,6.9,-,N/A,,Clear,180,2013-05-14 15:58:00
11:58 AM,79.5,54.5,42,30.22,10.0,South,8.1,-,N/A,,Clear,190,2013-05-14 16:58:00
12:58 PM,82.6,50.0,32,30.20,10.0,SSW,9.2,-,N/A,,Clear,210,2013-05-14 17:58:00
1:58 PM,84.9,46.4,26,30.17,10.0,South,11.5,18.4,N/A,,Clear,190,2013-05-14 18:58:00
2:58 PM,85.6,46.9,26,30.14,10.0,South,10.4,19.6,N/A,,Clear,190,2013-05-14 19:58:00
3:34 PM,86.0,48.2,27,30.12,10.0,SW,12.7,-,N/A,,Clear,220,2013-05-14 20:34:00
3:58 PM,86.5,49.5,28,30.12,10.0,South,15.0,-,N/A,,Clear,180,2013-05-14 20:58:00
4:01 PM,86.0,50.0,29,30.11,10.0,South,11.5,-,N/A,,Clear,180,2013-05-14 21:01:00
4:58 PM,85.6,50.2,29,30.11,10.0,SSW,12.7,-,N/A,,Clear,200,2013-05-14 21:58:00
5:58 PM,84.7,49.3,29,30.10,10.0,South,13.8,21.9,N/A,,Clear,190,2013-05-14 22:58:00
6:58 PM,83.1,50.4,32,30.08,10.0,SSW,11.5,-,N/A,,Clear,200,2013-05-14 23:58:00
7:58 PM,79.7,51.6,38,30.08,10.0,South,8.1,-,N/A,,Clear,190,2013-05-15 00:58:00
8:58 PM,71.4,53.8,54,30.09,10.0,South,11.5,-,N/A,,Clear,180,2013-05-15 01:58:00
9:58 PM,74.5,50.0,42,30.10,10.0,South,10.4,-,N/A,,Clear,170,2013-05-15 02:58:00
10:58 PM,70.2,51.3,51,30.12,10.0,South,10.4,-,N/A,,Clear,170,2013-05-15 03:58:00
11:58 PM,68.9,49.5,50,30.13,10.0,South,10.4,-,N/A,,Clear,170,2013-05-15 04:58:00